Location: Little Baddow
(51.7333°N, 0.5667°E)
Time: 23:25:58
(UTC+00:00)

Cosmos 2360 Rocket - Pass Details

Date: 08 November 2025
Orbit: 833 x 843 km, 71.0° (Epoch: 04 December)

Event Time Altitude Azimuth Distance (km) Brightness Sun altitude
Exits shadow 05:40:58 17° 298° (WNW) 2,027 3.6 -13.1°
Maximum altitude 05:43:08 21° 327° (NNW) 1,837 3.6 -12.7°
Drops below altitude 10° 05:47:19 10° 14° (NNE) 2,474 4.7 -12.1°
Sets 05:50:26 0° 31° (NNE) 3,411 5.6 -11.6°
